• Processing (Info)

  • MPEC 2001-M21 : 2000 FL10

    The following Minor Planet Electronic Circular may be linked-to from your own Web pages, but must not otherwise be redistributed electronically.

    A form allowing access to any MPEC is at the bottom of this page.


    Read MPEC 2001-M20 Read MPEC 2001-M22


    M.P.E.C. 2001-M21                                Issued 2001 June 20, 17:44 UT
    
         The Minor Planet Electronic Circulars contain information on unusual
             minor planets and routine data on comets.  They are published
       on behalf of Commission 20 of the International Astronomical Union by the
              Minor Planet Center, Smithsonian Astrophysical Observatory,
                              Cambridge, MA 02138, U.S.A.
    
                 Prepared using the Tamkin Foundation Computer Network
    
                                  MPC@CFA.HARVARD.EDU
              URL http://cfa-www.harvard.edu/iau/mpc.html  ISSN 1523-6714
    
                                       2000 FL10
    
                               Revision to MPEC 2000-G06
    
    Observations:
         K00F10L  C2001 06 19.11733 00 39 00.61 +22 30 48.1          20.2 V      493
         K00F10L  C2001 06 19.11877 00 39 00.86 +22 30 48.9                      493
         K00F10L  C2001 06 20.14860 00 42 07.79 +22 40 52.9          20.3 V      493
         K00F10L  C2001 06 20.15014 00 42 08.00 +22 40 53.3                      493
    
    Observer details:
    493 Calar Alto.  Observers DANEOPS Team (M. Busch, A. Seib, F. Hormuth).
        Measurers R. Stoss, A. Gnadig, A. Doppler.  1.52-m reflector + CCD.
    
    First and last observations above in comparison with prediction:
    Residuals in seconds of arc, reference and Delta-T
    010619 493 41.4+  4.9-    010620 493 40.7+  5.4-    MPO  2762   -0.025 day
    
    Orbital elements:
    2000 FL10
    Epoch 2001 Apr. 1.0 TT = JDT 2452000.5                  Spahr
    M 251.17769              (2000.0)            P               Q
    n   0.55701952     Peri.  258.75085     +0.08808606     -0.99432385
    a   1.4629263      Node   187.06627     +0.99218357     +0.08226529
    e   0.4268136      Incl.   29.01788     -0.08838896     -0.06747225
    P   1.77           H   16.9           G   0.15           U   3
    Residuals in seconds of arc
    000330 703  0.1+  0.1+    000402 151  0.3-  0.9-    000410 704  0.6-  0.2-
    000330 703  0.1+  0.2+    000402 151  0.0   0.2-    000410 670  0.6+  0.5-
    000330 703  0.1+  0.0     000402 151  0.2-  0.4-    000411 402  0.2-  0.3-
    000330 703  1.3+  0.3-    000403 670  0.1-  0.8-    000411 402  0.3+  0.0
    000331 703  0.0   0.0     000403 670  0.0   0.5-    000411 402  0.2+  0.3-
    000331 703  0.0   0.1+    000404 699  0.3+  0.1+    000411 900  0.2+  0.7+
    000331 658  0.3+  0.2+    000404 699  0.3+  0.0     000411 900  0.4-  0.9-
    000331 658  0.2+  0.0     000404 699  0.4+  0.0     000416 046  0.3+  0.3-
    000331 658  0.2+  0.1+    000404 699  0.4+  0.1-    000416 046  0.6+  0.2-
    000331 428 (1.1-  2.6-)   000405 704  0.2+  0.2-    000416 046  0.1+  0.5-
    000331 428  0.3-  0.2-    000405 704  0.1+  0.0     000416 046  0.1-  0.1+
    000331 428  0.4+  0.5+    000405 704  1.4+  0.3-    000417 118  0.2+  0.5-
    000331 428  0.3+  0.3-    000405 704  0.3+  0.1-    000417 118  0.6+  0.1-
    000331 046  0.2+  0.2+    000405 704  0.5+  0.1-    000420 360  0.1-  0.0
    000331 046  0.2+  0.2+    000406 360  0.2-  0.1-    000420 360  0.2+  0.1-
    000331 046  0.0   0.1-    000406 360  0.3-  0.3-    000420 360  0.7+  0.2+
    000331 046  0.1+  0.0     000406 360  0.2-  0.4-    000421 118  0.4+  0.0
    000331 046  0.0   0.2-    000406 360  0.2-  0.3-    000421 118  0.5+  0.2+
    000331 046  0.1+  0.1+    000406 900  0.3-  0.0     000422 739 (4.0+  0.9+)
    000401 670  0.8-  0.5-    000406 900  0.3-  0.1-    000422 739  0.3+  0.1-
    000401 670  0.6-  1.2-    000406 071  0.5-  0.4+    000422 739  0.4-  1.3-
    000401 670  0.6-  0.8-    000406 071  0.4+  0.3+    000422 106  0.3+  0.4+
    000401 428  0.2-  0.2-    000406 071  0.6+  0.3+    000422 106  1.1-  1.3-
    000401 428  0.2+  0.0     000406 071  0.2+  0.1+    000422 106  0.4+  0.6-
    000401 428  0.2+  0.4-    000406 071  0.0   0.1+    000424 670  0.1+  1.0-
    000401 428  0.1+  0.2-    000406 118  0.1+  0.1+    000424 670  0.7-  0.4-
    000401 151  0.1+  0.2-    000406 118  0.1+  0.0     000424 658  0.4-  0.5+
    000401 151  0.9+  0.1-    000407 151  0.8-  0.4-    000424 658  0.5-  0.5+
    000401 151  0.1+  0.3+    000407 151  0.1+  0.1+    000424 658  0.4-  1.3+
    000401 151  1.3-  0.5-    000407 151  0.9-  0.2-    000426 739  1.5+  0.6+
    000401 151  0.1+  0.3+    000407 151  0.9-  0.1+    000426 118  0.1+  0.2+
    000401 151  1.2-  0.1+    000407 151  0.7-  0.1+    000426 118  0.4+  0.1-
    000401 557  0.0   0.1+    000407 151  0.3-  0.0     000426 118  0.3+  0.2+
    000401 557  0.5-  0.2+    000407 649  1.8+  1.0-    000428 699  0.4+  0.2-
    000401 557  0.1+  0.2+    000407 649  0.5-  0.7-    000428 699  0.2+  0.4+
    000401 557  0.4-  0.5+    000407 649 (1.6+  2.1+)   000428 699  0.4+  0.0
    000402 860  1.4-  0.7+    000407 649 (1.8+  2.7+)   000428 699  0.1+  0.1+
    000402 860  0.7-  0.0     000407 649  0.2-  0.4-    000428 118  0.1-  0.4-
    000402 860  0.3-  0.5+    000407 151  0.7-  0.3+    000428 118  0.1+  0.2+
    000402 860  0.3-  0.1-    000407 151  0.0   0.2-    000429 118  0.4+  0.6-
    000402 860  0.5-  0.0     000407 151  0.2-  0.4-    000429 118  0.1-  0.5-
    000402 860  1.1-  0.4-    000407 151  0.2+  0.2-    000429 118  0.4-  0.1+
    000402 860  0.1-  1.3+    000407 151  0.6+  0.9-    000501 360  0.3+  0.2+
    000402 860 (0.2+  2.1+)   000407 151  0.4-  0.4-    000501 360  0.1-  0.1-
    000402 713  1.6+  1.4+    000407 610  0.6-  0.2-    000501 360  0.1-  0.0
    000402 750  1.4-  0.2+    000407 610  0.4-  0.2-    000502 704  0.1-  0.6+
    000402 750  0.2-  1.1+    000407 610  0.2-  0.3-    000502 704  0.2-  0.1+
    000402 750  0.6-  0.1+    000407 610  0.1-  0.5-    000502 704  0.1+  0.2+
    000402 713  1.6+  0.9+    000408 739  0.2-  0.1-    000502 704  0.2+  0.5-
    000402 713  1.4+  0.9+    000408 739  1.6-  0.2+    000502 704  0.1+  0.2-
    000402 750  0.1-  0.2+    000408 739  0.8+  0.2-    000505 118  0.7+  0.2+
    000402 713  1.0+  0.3+    000408 610  1.1-  0.4+    000505 118  0.7+  0.6+
    000402 750  0.2-  0.5+    000408 610  1.0-  0.3+    000514 557  0.4+  0.4+
    000402 750  1.0-  0.0     000408 610  0.7-  0.3+    000514 557  0.3+  0.2+
    000402 750  0.4+  0.2+    000408 610  0.4-  0.3+    000514 557  0.8+  0.6+
    000402 750  0.2-  0.3+    000408 610  0.2-  0.2+    000723 413  0.8-  0.6+
    000402 345  0.8+  1.2+    000408 118  0.1+  0.3+    000723 413  0.2-  0.1-
    000402 345  0.8+  0.9+    000408 118  0.0   0.4+    000723 413  0.5+  0.4+
    000402 345  0.5+  1.2+    000410 670  0.1-  0.6-    010619 493  0.5+  0.4+
    000402 345  0.8+  1.0+    000410 704  0.3-  0.4+    010619 493  0.4+  0.3+
    000402 151  0.5+  1.3-    000410 670  0.2-  0.3-    010620 493  0.2+  0.6+
    000402 151  0.8+  0.5-    000410 704  0.3-  0.8+    010620 493  0.8-  0.1+
    000402 151  0.3+  0.1-    000410 704  0.2+  0.3+
    
    Ephemeris:
    2000 FL10                a,e,i = 1.46, 0.43, 29                  q = 0.8385
    Date    TT    R. A. (2000) Decl.     Delta      r     Elong.  Phase     V
    2001 06 10    00 12.72   +20 54.8    1.542    1.509    68.8    38.9    20.3
    2001 06 20    00 41.67   +22 39.5    1.416    1.449    71.0    41.5    20.1
    2001 06 30    01 13.72   +24 06.0    1.293    1.386    72.7    44.4    19.9
    2001 07 10    01 49.72   +25 04.2    1.175    1.322    73.8    47.6    19.6
    2001 07 20    02 30.54   +25 20.1    1.065    1.256    74.2    51.1    19.4
    2001 07 30    03 16.80   +24 34.1    0.966    1.189    73.7    55.1    19.2
    2001 08 09    04 08.47   +22 24.4    0.884    1.122    72.1    59.3    19.0
    2001 08 19    05 04.44   +18 35.7    0.826    1.057    69.3    63.6    18.9
    2001 08 29    06 02.35   +13 13.2    0.798    0.995    65.6    67.5    18.8
    
    Timothy B. Spahr             (C) Copyright 2001 MPC           M.P.E.C. 2001-M21
    

    Read MPEC 2001-M20 Read MPEC 2001-M22


    MPEC number:

    Enter an MPEC number in one of the following forms:

    • 1997-B01 (the full form)
    • J97B01 (the packed version of the full form)
    • B01 (the abbreviated form)